Stations météo

réclame
Mon MeteoGroup
Finisterre, Espagne (8040): Température de l'air & dewpoint: 10.01.2018 10:00:00 - 16.01.2018 10:00:00 (CET)Finisterre, Espagne (8040): Vitesse du vent & gusts: 10.01.2018 10:00:00 - 16.01.2018 10:00:00 (CET)Finisterre, Espagne (8040): Direction du vent: 10.01.2018 10:00:00 - 16.01.2018 10:00:00 (CET)Finisterre, Espagne (8040): reduced air pressure: 10.01.2018 10:00:00 - 16.01.2018 10:00:00 (CET)Finisterre, Espagne (8040): visibility: 10.01.2018 10:00:00 - 16.01.2018 10:00:00 (CET)Finisterre, Espagne (8040): Ensoleillement: 10.01.2018 10:00:00 - 16.01.2018 10:00:00 (CET)Finisterre, Espagne (8040): Quantités de précipitations: 10.01.2018 10:00:00 - 16.01.2018 10:00:00 (CET)
Date & Time tt [°C] td [°C] ff [km/h] ff [knt] fx [km/h] fx [knt] dd ppp [hPa] vv [km] sd [min] rr [mm]
16.01.2018 10:00:00 - - - - - - - - - - -
16.01.2018 09:00:00 11,1 10,5 22 12 37 20 WNW 1028,3 0,1 0 0,0
16.01.2018 08:00:00 10,9 10,3 23 12 35 19 W 1027,8 13 0 0,0
16.01.2018 07:00:00 11,4 10,8 21 12 30 16 W 1027,3 0,6 0 -
16.01.2018 06:00:00 11,6 11,0 23 12 32 17 W 1027,0 0,1 0 0,0
16.01.2018 05:00:00 11,4 10,8 22 12 33 18 W 1027,2 0,2 0 0,0
16.01.2018 04:00:00 11,6 11,0 21 12 31 17 W 1027,3 0,1 0 0,2
16.01.2018 03:00:00 11,6 11,0 25 14 36 19 W 1027,0 0,1 0 0,0
16.01.2018 02:00:00 11,8 11,2 23 13 39 21 WNW 1027,4 0,2 0 0,0
16.01.2018 01:00:00 11,9 11,3 27 15 38 20 WNW 1027,6 0,7 0 -
16.01.2018 00:00:00 12,1 11,4 32 17 42 23 W 1027,1 0,1 0 0,0
15.01.2018 23:00:00 12,2 11,6 31 17 46 25 W 1026,8 0,1 0 0,0
15.01.2018 22:00:00 12,3 11,7 31 17 45 24 W 1026,5 0,1 0 0,2
15.01.2018 21:00:00 12,3 11,7 28 15 40 21 W 1026,1 0,2 0 0,0
15.01.2018 20:00:00 12,2 11,4 34 19 43 23 W 1025,5 0,2 0 1,6
15.01.2018 19:00:00 11,9 11,1 27 15 43 23 SW 1025,5 0,2 0 -
15.01.2018 18:00:00 11,5 10,8 34 18 46 25 SW 1025,4 0,1 0 3,8
15.01.2018 17:00:00 11,1 10,3 38 20 51 27 SW 1025,4 0,2 0 3,2
15.01.2018 16:00:00 10,7 9,8 38 20 53 29 SW 1025,3 0,1 0 1,2
15.01.2018 15:00:00 10,3 9,2 39 21 54 29 SW 1025,5 4,7 0 0,0
15.01.2018 14:00:00 10,6 8,7 38 20 51 28 SW 1026,1 10 0 0,0
15.01.2018 13:00:00 11,0 8,8 36 19 45 25 SW 1027,0 18 0 -
15.01.2018 12:00:00 10,1 9,0 31 17 47 26 SW 1027,4 20 0 0,0
15.01.2018 11:00:00 8,8 7,8 29 16 43 23 SSW 1027,0 6 0 0,0
15.01.2018 10:00:00 8,6 7,7 27 15 41 22 S - - 0 0,0
15.01.2018 09:00:00 8,3 7,4 23 13 37 20 S 1026,2 4,2 0 0,0
15.01.2018 08:00:00 8,0 7,0 20 11 30 16 S 1025,8 3,3 0 0,0
15.01.2018 07:00:00 7,8 6,5 19 10 28 15 S 1026,0 9 0 -
15.01.2018 06:00:00 7,9 6,7 16 9 27 15 S 1025,6 9 0 0,0
15.01.2018 05:00:00 7,7 6,5 16 9 24 13 S 1025,4 7 0 0,0
15.01.2018 04:00:00 7,5 5,9 16 8 23 13 SSW 1025,6 10 0 0,0
15.01.2018 03:00:00 7,5 5,8 15 8 22 12 S 1025,3 10 0 0,0
15.01.2018 02:00:00 7,5 5,5 11 6 16 9 S 1025,6 11 0 0,0
15.01.2018 01:00:00 7,4 5,3 5 3 8 4 S 1025,9 14 0 -
15.01.2018 00:00:00 7,5 5,1 4 2 11 6 SSW 1025,7 8 0 0,0
14.01.2018 23:00:00 7,6 5,3 9 5 12 6 NNW 1025,6 10 0 0,0
14.01.2018 22:00:00 7,6 5,5 10 5 12 7 N 1025,0 12 0 0,0
14.01.2018 21:00:00 7,6 5,3 6 4 9 5 NNW 1024,3 6 0 0,0
14.01.2018 20:00:00 7,4 4,8 6 4 8 4 SE 1023,3 19 0 0,0
14.01.2018 19:00:00 8,2 5,1 4 2 11 6 SSW 1022,9 20 21 -
14.01.2018 18:00:00 10,0 6,4 7 4 16 8 WSW 1021,8 20 55 0,0
14.01.2018 17:00:00 10,9 7,3 10 6 20 11 SSW 1020,9 18 53 0,0
14.01.2018 16:00:00 10,8 7,4 14 8 24 13 SSW 1020,4 14 60 0,0
14.01.2018 15:00:00 10,9 8,0 14 7 29 16 S 1020,5 18 48 0,0
14.01.2018 14:00:00 9,4 7,7 13 7 25 14 S 1020,7 16 14 0,0
14.01.2018 13:00:00 8,8 7,1 18 10 26 14 SSE 1021,0 13 25 -
14.01.2018 12:00:00 8,0 7,0 12 7 23 13 SE 1020,9 10 22 0,0
14.01.2018 11:00:00 6,9 5,8 16 8 29 15 SE 1020,4 11 0 0,2
14.01.2018 10:00:00 6,7 5,6 9 5 19 10 SE 1020,2 2,3 0 1,8
14.01.2018 09:00:00 6,5 5,3 18 10 24 13 SE 1019,5 3,4 0 0,8
14.01.2018 08:00:00 6,3 5,0 11 6 22 12 E 1019,0 17 0 0,2
14.01.2018 07:00:00 7,0 5,3 9 5 30 16 NNW 1018,9 10 0 -
14.01.2018 06:00:00 7,5 3,9 6 3 31 17 W 1018,6 10 0 0,2
14.01.2018 05:00:00 8,0 5,3 13 7 30 16 WNW 1018,9 8 0 0,2
14.01.2018 04:00:00 8,1 4,6 13 7 33 18 NW 1018,6 12 0 0,6
14.01.2018 03:00:00 8,0 2,9 15 8 40 22 N 1018,4 8 0 0,0
14.01.2018 02:00:00 8,2 3,9 11 6 27 14 NW 1018,7 13 0 0,0
14.01.2018 01:00:00 7,7 3,9 13 7 43 23 NNW 1019,0 8 0 -
14.01.2018 00:00:00 8,3 4,5 13 7 32 17 NNW 1018,6 7 0 0,0
13.01.2018 23:00:00 8,3 4,1 18 10 37 20 N 1018,3 8 0 0,0
13.01.2018 22:00:00 8,2 5,5 10 5 44 24 NNW 1017,9 7 0 0,0
13.01.2018 21:00:00 7,9 5,3 19 11 45 24 NW 1017,3 19 0 0,4
13.01.2018 20:00:00 7,9 5,1 15 8 38 20 WNW 1017,2 13 0 0,2
13.01.2018 19:00:00 8,1 4,6 18 10 41 22 NW 1016,8 5 5 -
13.01.2018 18:00:00 8,3 3,8 21 11 58 32 WNW 1016,0 10 9 0,0
13.01.2018 17:00:00 10,1 4,6 33 18 45 25 W 1015,5 20 35 0,0
13.01.2018 16:00:00 9,6 5,5 24 13 44 24 WNW 1015,2 12 10 0,0
13.01.2018 15:00:00 11,0 7,0 10 6 16 9 WSW 1015,3 19 53 0,0
13.01.2018 14:00:00 9,2 6,8 8 4 37 20 WNW 1015,6 11 0 0,2
13.01.2018 13:00:00 9,9 7,1 22 12 38 21 W 1015,8 6 34 -
13.01.2018 12:00:00 10,0 6,5 15 8 25 14 WNW 1016,2 13 40 0,0
13.01.2018 11:00:00 9,6 6,5 14 7 24 13 NW 1016,0 7 24 0,0
13.01.2018 10:00:00 9,4 7,0 15 8 27 15 NW 1015,4 6 0 0,0
13.01.2018 09:00:00 9,0 5,0 18 10 39 21 NNW 1015,0 18 0 0,4
13.01.2018 08:00:00 9,3 6,7 11 6 30 16 NW 1014,5 10 0 0,0
13.01.2018 07:00:00 9,4 7,7 16 8 26 14 NW 1013,9 8 0 -
13.01.2018 06:00:00 9,0 8,0 8 5 18 10 SSW 1014,2 5 0 0,0
13.01.2018 05:00:00 8,8 7,6 9 5 17 9 SW 1014,4 8 0 0,0
13.01.2018 04:00:00 8,7 7,8 12 6 27 14 WNW 1014,3 19 0 1,4
13.01.2018 03:00:00 8,0 7,3 21 11 32 17 N 1014,3 6 0 2,6
13.01.2018 02:00:00 9,4 8,7 9 5 41 22 WSW 1014,9 0,1 0 1,8
13.01.2018 01:00:00 9,9 8,9 29 15 84 46 NW 1014,9 3,4 0 -
13.01.2018 00:00:00 9,7 8,8 42 23 90 49 S 1013,6 3,1 0 0,4
12.01.2018 23:00:00 9,8 8,8 50 27 89 48 S 1014,0 3,1 0 1,6
12.01.2018 22:00:00 9,8 8,5 45 24 82 45 S 1014,8 3,8 0 1,6
12.01.2018 21:00:00 10,1 8,5 42 23 75 40 S 1015,8 3,5 0 0,4
12.01.2018 20:00:00 10,4 8,1 40 22 76 41 S 1016,0 8 0 0,0
12.01.2018 19:00:00 10,3 8,1 40 22 85 46 S 1016,5 9 0 -
12.01.2018 18:00:00 10,1 7,6 36 20 74 40 S 1017,3 9 0 0,0
12.01.2018 17:00:00 10,1 7,7 38 21 69 38 S 1018,0 9 0 0,0
12.01.2018 16:00:00 10,2 7,3 35 19 73 40 S 1018,5 9 0 0,0
12.01.2018 15:00:00 10,1 6,4 35 19 72 39 S 1019,7 12 9 0,0
12.01.2018 14:00:00 10,7 6,7 34 18 64 35 S 1021,0 11 17 0,0
12.01.2018 13:00:00 9,5 5,6 36 19 61 33 S 1022,3 13 10 -
12.01.2018 12:00:00 9,0 5,3 33 18 55 30 S 1023,2 12 0 0,0
12.01.2018 11:00:00 8,8 5,3 29 16 58 32 S 1023,3 10 0 0,0
12.01.2018 10:00:00 8,4 5,0 28 15 51 28 S 1023,1 11 0 0,0
12.01.2018 09:00:00 8,1 4,5 29 16 49 26 S 1023,5 13 0 0,0
12.01.2018 08:00:00 8,0 4,5 29 16 52 28 S 1023,8 11 0 0,0
12.01.2018 07:00:00 8,1 4,1 30 16 48 26 S 1023,7 13 0 -
12.01.2018 06:00:00 7,9 3,8 27 15 44 24 S 1024,3 11 0 0,0
12.01.2018 05:00:00 8,0 3,4 24 13 40 22 SSE 1025,2 12 0 0,0
12.01.2018 04:00:00 7,9 3,0 29 15 40 22 SSE 1025,8 14 0 0,0
12.01.2018 03:00:00 7,8 3,6 24 13 37 20 S 1026,1 12 0 0,0
12.01.2018 02:00:00 8,1 3,8 24 13 37 20 S 1026,8 12 0 0,0
12.01.2018 01:00:00 7,8 3,8 22 12 30 16 S 1027,6 13 0 -
12.01.2018 00:00:00 7,8 3,6 18 10 26 14 SSE 1028,0 10 0 0,0
11.01.2018 23:00:00 7,5 3,2 12 6 16 9 SE 1028,2 14 0 0,0
11.01.2018 22:00:00 8,4 2,7 3 2 8 4 ESE 1028,4 16 0 0,0
11.01.2018 21:00:00 8,4 2,5 7 4 14 8 N 1028,2 16 0 0,0
11.01.2018 20:00:00 8,5 2,9 12 7 19 10 NNE 1028,1 13 0 0,0
11.01.2018 19:00:00 9,1 3,2 13 7 24 13 N 1027,9 6 0 -
11.01.2018 18:00:00 9,6 3,9 14 8 27 15 N 1027,3 6 1 0,0
11.01.2018 17:00:00 9,8 4,3 18 10 33 18 N 1027,0 6 20 0,0
11.01.2018 16:00:00 10,3 4,8 16 9 40 21 NNW 1026,9 8 8 0,0
11.01.2018 15:00:00 9,9 4,5 19 10 38 21 N 1026,9 7 6 0,0
11.01.2018 14:00:00 10,1 3,4 23 12 49 26 NNW 1026,7 7 22 0,0
11.01.2018 13:00:00 9,9 3,0 20 11 48 26 NNW 1027,0 11 32 -
11.01.2018 12:00:00 9,4 3,8 21 12 50 27 NNW 1027,2 7 36 0,0
11.01.2018 11:00:00 9,1 4,1 24 13 51 28 NNW 1026,4 9 5 0,0
11.01.2018 10:00:00 8,3 4,5 25 13 63 34 NNW 1025,8 8 0 0,0
11.01.2018 09:00:00 9,0 3,6 32 17 72 39 NNW 1025,1 12 0 0,0
11.01.2018 08:00:00 8,7 4,1 19 11 63 34 NNW 1024,3 9 0 0,0
11.01.2018 07:00:00 8,2 4,6 23 12 64 35 NW 1023,6 10 0 -
11.01.2018 06:00:00 8,6 4,3 28 15 77 41 NNW 1022,6 10 0 0,0
11.01.2018 05:00:00 8,7 3,8 26 14 72 39 NW 1022,6 10 0 0,0
11.01.2018 04:00:00 9,0 3,8 21 12 65 35 NW 1022,0 9 0 0,0
11.01.2018 03:00:00 9,0 4,6 24 13 79 43 NW 1021,7 9 0 0,0
11.01.2018 02:00:00 8,7 5,6 32 17 75 41 NNW 1021,7 7 0 0,0
11.01.2018 01:00:00 9,6 5,5 29 15 79 43 NNW 1021,7 8 0 -
11.01.2018 00:00:00 9,6 4,5 32 18 85 46 NW 1020,5 8 0 0,2
10.01.2018 23:00:00 8,8 5,8 35 19 91 49 NW 1019,9 10 0 0,0
10.01.2018 22:00:00 8,6 4,8 44 24 74 40 NW 1019,4 9 0 0,0
10.01.2018 21:00:00 7,8 5,9 34 18 79 42 NW 1019,9 6 0 0,2
10.01.2018 20:00:00 9,9 5,5 45 25 85 46 WNW 1018,6 8 0 0,0
10.01.2018 19:00:00 8,8 5,8 44 24 98 53 WNW 1018,4 10 0 -
10.01.2018 18:00:00 10,0 5,1 32 18 82 44 NW 1018,3 8 38 0,0
10.01.2018 17:00:00 10,4 4,1 35 19 86 47 NW 1017,2 12 37 0,0
10.01.2018 16:00:00 10,7 4,1 31 17 83 45 NW 1015,9 10 53 0,0
10.01.2018 15:00:00 9,8 5,5 42 23 93 50 NW 1015,1 7 45 0,0
10.01.2018 14:00:00 9,7 5,1 40 21 80 43 NW 1014,0 9 37 0,2
10.01.2018 13:00:00 8,1 5,0 42 23 119 64 WNW 1014,0 13 36 -
10.01.2018 12:00:00 9,9 4,6 56 30 99 53 WNW 1013,0 10 38 0,4
10.01.2018 11:00:00 10,1 5,1 59 32 104 56 NW 1010,9 10 21 0,2
10.01.2018 10:00:00 10,7 7,6 64 34 113 61 WNW 1008,6 10 0 1,6

tt = Température de l'air
td = dewpoint
ff = Vitesse du vent
fx = gusts
dd = Direction du vent
ppp = reduced air pressure
vv = visibility
sd = Ensoleillement
rr = Quantités de précipitations

stations d'obs. à proximité